Flag Weather past 2 weeks in Preveza, Greece

Now
50 °F

Passing clouds.


Feels Like: 48 °F
Forecast: 49 / 59 °F
Wind: 5 mph from Northeast

Location: Aktion Airport

Current Time: Nov 23, 2014 at 10:16:52 PM

Latest Report: Nov 23, 2014 at 8:50 PM


Visibility: N/A

Pressure: 30.24 "Hg

Humidity: 88%

Dew point: 46 °F

Location of PrevezaLocation

Historic Weather in Preveza — Graph

°F

Preveza temperature yesterday

Maximum temperature yesterday: 64 °F (at 3:20 PM)
Minimum temperature yesterday: 48 °F (at 8:50 PM)
Average temperature yesterday: 55 °F

Past Weeks' High & Low Weather Summary

 TemperatureHumidityPressure
High72 °F (Nov 10, 1:50 PM)94% (Nov 10, 9:50 PM)30.30 "Hg (Nov 10, 9:50 PM)
Low48 °F (Nov 21, 6:50 AM)32% (Nov 22, 3:20 PM)29.77 "Hg (Nov 13, 3:50 PM)
Average61 °F76%30.04 "Hg
* Reported Nov 8 8:50 PM — Nov 23 8:50 PM, Preveza, Weather by CustomWeather, © 2014

Note: Actual official high and low records may vary slightly from our data, if they occured in-between our weather recording intervals... More about our weather records

Advertising

Preveza weather history for previous 24 hours

 ConditionsComfort  
Time TempWeatherWind HumidityBarometerVisibility
8:50 PM
Nov 23
50 °FPassing clouds.5 mph88%30.24 "HgN/A
7:50 PM52 °FPassing clouds.No wind82%30.24 "HgN/A
7:20 PM52 °FPassing clouds.5 mph82%30.24 "HgN/A
6:50 PM54 °FClear.5 mph82%30.21 "Hg10 mi
6:20 PM52 °FClear.No wind82%30.21 "Hg10 mi
5:50 PM55 °FClear.No wind77%30.21 "Hg10 mi
5:20 PM57 °FClear.No wind67%30.21 "Hg10 mi
4:50 PM59 °FSunny.No wind63%30.24 "Hg10 mi
4:20 PM59 °FSunny.No wind59%30.24 "Hg10 mi
3:50 PM61 °FSunny.5 mph52%30.24 "Hg10 mi
3:20 PM63 °FSunny.No wind39%30.24 "Hg10 mi
2:50 PM64 °FSunny.No wind40%30.24 "Hg10 mi
2:20 PM63 °FSunny.No wind45%30.24 "Hg10 mi
1:50 PM61 °FSunny.No wind55%30.24 "Hg10 mi
1:20 PM61 °FSunny.3 mph55%30.27 "Hg10 mi
12:50 PM59 °FSunny.5 mph63%30.27 "Hg10 mi
12:20 PM57 °FSunny.7 mph63%30.27 "Hg10 mi
11:50 AM57 °FSunny.7 mph63%30.30 "Hg10 mi
11:20 AM55 °FSunny.9 mph67%30.30 "Hg10 mi
10:50 AM55 °FSunny.9 mph67%30.30 "Hg10 mi
10:20 AM55 °FSunny.10 mph67%30.30 "Hg10 mi
9:50 AM54 °FSunny.9 mph67%30.30 "Hg10 mi
9:20 AM54 °FSunny.9 mph72%30.30 "Hg10 mi
8:50 AM52 °FSunny.8 mph72%30.27 "Hg10 mi
8:20 AM52 °FPassing clouds.8 mph72%30.27 "HgN/A
7:50 AM50 °FPassing clouds.8 mph76%30.27 "HgN/A
7:20 AM50 °FPassing clouds.8 mph76%30.27 "HgN/A
6:50 AM50 °FPassing clouds.9 mph76%30.27 "HgN/A
6:20 AM50 °FPassing clouds.8 mph76%30.27 "HgN/A
5:50 AM52 °FPassing clouds.No wind72%30.27 "HgN/A
5:20 AM50 °FPassing clouds.8 mph76%30.27 "HgN/A
4:50 AM50 °FPassing clouds.8 mph76%30.27 "HgN/A
3:50 AM52 °FPassing clouds.8 mph77%30.27 "HgN/A
1:50 AM52 °FPassing clouds.6 mph77%30.27 "HgN/A
12:50 AM52 °FPassing clouds.9 mph77%30.27 "HgN/A
11:50 PM
Nov 22
52 °FPassing clouds.6 mph77%30.27 "HgN/A
10:50 PM52 °FPassing clouds.6 mph88%30.24 "HgN/A
Weather by CustomWeather, © 2014

See weather overviewHow to use our weather pages